Regional Weather Roundup
Issued by NWS

Home | Current Version | Previous Version | Text Only | Print | Product List | Glossary Off
Versions: 1 2 3 4 5 6 7 8 9 10 11 12 13 14 15 16 17 18 19 20 21 22 23 24 25 26 27 28 29 30 31 32 33 34 35 36 37 38 39 40 41 42 43 44 45 46 47 48 49 50

000
ASUS45 KBOU 172107
RWRCO

WEATHER ROUNDUP FOR COLORADO
NATIONAL WEATHER SERVICE DENVER/BOULDER CO
200 PM MST WED DEC 17 2014

NOTE: "FAIR" INDICATES FEW OR NO CLOUDS BELOW 12000 FEET WITH NO
SIGNIFICANT WEATHER AND/OR OBSTRUCTIONS TO VISIBILITY.

COZ001>005-013-030-031-172200-
...NORTHWEST COLORADO...

CITY           SKY/WX    TMP DP  RH WIND       PRES   REMARKS
CRAIG          CLOUDY    29  26  89 SW3       29.96S
HAYDEN         CLOUDY    28  25  86 CALM      29.94S
MEEKER         CLOUDY    32  28  85 SW3       29.93F
MOUNT WERNER   NOT AVBL
STEAMBOAT SPGS CLOUDY    30  26  88 CALM      29.93S
WALDEN         PTSUNNY   28  21  74 CALM      29.91F
$$

COZ006>008-011-172200-
...WEST CENTRAL VALLEYS...

CITY           SKY/WX    TMP DP  RH WIND       PRES   REMARKS
GRAND JUNCTION CLOUDY    38  35  89 CALM      29.94F
MONTROSE       CLOUDY    42  28  57 NW5       29.94F
EAGLE          CLOUDY    28  21  74 CALM      29.97F
RIFLE          CLOUDY    38  29  70 CALM      29.93F
DELTA          CLOUDY    44  33  64 CALM      29.93F
NUCLA          CLOUDY    37  32  81 CALM      29.98S
$$

COZ017>023-064>068-172200-
...SOUTHWEST COLORADO...

CITY           SKY/WX    TMP DP  RH WIND       PRES   REMARKS
DURANGO        CLOUDY    39  27  62 E3        29.94F
CORTEZ         FLURRIES  37  32  82 NW13      29.95S
PAGOSA SPRINGS LGT SNOW  32  31  94 CALM      29.95S
TELLURIDE      CLOUDY    31  24  75 W7        29.93F HAZE    WCI  24
WOLF CREEK PAS NOT AVBL
$$

COZ009-010-012-014-032>034-037-058>063-172200-
...CENTRAL COLORADO...

CITY           SKY/WX    TMP DP  RH WIND       PRES   REMARKS
ASPEN          CLOUDY    34  23  64 CALM      29.90F
BUENA VISTA    CLOUDY    36  20  51 SE7       29.90F
COPPER MTN     LGT SNOW  23  18  80 W10       29.92F WCI  12
BERTHOUD PASS  LGT SNOW  14  10  85 MISG      29.94S
COTTONWOOD PAS CLOUDY    32  19  59 E6        29.91F WCI  26
GUNNISON       PTSUNNY   28  18  64 CALM      29.97F
KREMMLING      CLOUDY    23  16  74 CALM      29.96S
LEADVILLE      LGT SNOW  25  18  74 N3        29.90F
MONARCH PASS   SNOW      19  18  93 MISG      30.02F VSB 1/2
SALIDA         CLOUDY    37  25  62 CALM      29.98F
SUNLIGHT       MIX PCPN  27  25  93 CALM      29.94F
WILKERSON PASS LGT SNOW  23  19  86 N3        29.94F
$$

COZ069>075-172200-
...SAN LUIS VALLEY/SANGRE DE CRISTO MOUNTAINS...

CITY           SKY/WX    TMP DP  RH WIND       PRES   REMARKS
ALAMOSA        LGT SNOW  28  23  81 CALM      29.93F
LA VETA PASS   LGT SNOW  25  21  86 SW5       29.91F WCI  19
SAGUACHE       CLOUDY    30  25  80 CALM      29.94F
$$

COZ035-036-038>040-172200-
...NORTHERN COLORADO FRONT RANGE...

CITY           SKY/WX    TMP DP  RH WIND       PRES   REMARKS
DENVER INTL AP CLOUDY    38  27  64 E5        29.89F
DMNS CITY PARK   N/A     42  23  46 NE2       29.89S
AURORA         CLOUDY    39  24  54 SE8       29.90F
FRONT RANGE AP CLOUDY    39  28  65 E3        29.90
ERIE MUNI ARPT   N/A     42  25  50 MISG      29.90S
BOULDER MUN AP PTSUNNY   41  25  52 CALM      29.89S
CENTENNIAL     CLOUDY    41  22  46 SE3       29.88F
BROOMFIELD     CLOUDY    43  27  52 MISG      29.89F
FORT COLLINS   CLOUDY    39  25  56 E5        29.92S
LONGMONT       CLOUDY    43  24  47 E3        29.92S
$$

COZ041-046-047-076>085-087-088-172200-
...PIKES PEAK/PALMER DIVIDE AND SOUTHERN FOOTHILLS...

CITY           SKY/WX    TMP DP  RH WIND       PRES   REMARKS
COLO. SPRINGS  LGT SNOW  37  25  61 CALM      29.91F
A. F. ACADEMY  CLOUDY    37  28  70 SE9       29.90S
ELLICOTT       NOT AVBL
FALCON         CLOUDY    36  29  74 CALM      29.91F
FORT CARSON    CLOUDY    34  24  66 N6        29.89F WCI  29
LIMON          CLOUDY    33  24  69 N3        29.90F
MONUMENT HILL  CLOUDY    36  28  75 S9        29.89F
TRINIDAD       CLOUDY    37  27  67 CALM      29.88F
$$

COZ042>045-048>051-090-091-172200-
...NORTHEAST COLORADO...

CITY           SKY/WX    TMP DP  RH WIND       PRES   REMARKS
GREELEY ARPT   CLOUDY    32  19  59 CALM      29.91F
AKRON          CLOUDY    23  22  96 S8        29.93F FOG     WCI  14
BURLINGTON     FOG       25  23  92 E7        29.96F VSB 1/4 WCI  17
WRAY           CLOUDY    24  24  98 SE6       30.01S WCI  17
STERLING       CLOUDY    27  27 100 CALM      29.97F
HOLYOKE        NOT AVBL
FORT MORGAN    CLOUDY    19  14  81 CALM      29.95F
$$

COZ086-089-092>099-172200-
...SOUTHEAST COLORADO...

CITY           SKY/WX    TMP DP  RH WIND       PRES   REMARKS
PUEBLO         CLOUDY    34  22  61 E6        29.91F WCI  29
LA JUNTA       CLOUDY    29  24  82 N5        29.94S WCI  24
LAMAR          CLOUDY    29  25  85 MISG      29.94F
SPRINGFIELD      N/A     36  24  62 N12       29.90F
$$



USA.gov is the U.S. government's official web portal to all federal, state and local government web resources and services.